QPF
0.04 0.04 0.03 0.04 0.03 0.04 0.05 0.06 0.06 0.06 0.06 0.07 0.08 0.07 0.08 0.10 0.17 0.17 0.08 0.04 0.04 0.04 0.03 0.02 0.03 0.03 0.05 0.04 0.02 0.02 0.02 0.02 0.03 0.05 0.08 0.06 0.06 0.05 0.04 0.05 0.05 0.04 0.04
0.03 0.04 0.03 0.03 0.05 0.05 0.04 0.05 0.06 0.07 0.07 0.09 0.09 0.07 0.07 0.08 0.10 0.12 0.08 0.04 0.04 0.04 0.03 0.03 0.03 0.03 0.04 0.04 0.03 0.01 0.02 0.02 0.02 0.04 0.04 0.04 0.04 0.05 0.05 0.06 0.06 0.06 0.06
0.02 0.04 0.03 0.04 0.07 0.06 0.05 0.06 0.06 0.05 0.06 0.11 0.14 0.12 0.12 0.11 0.09 0.09 0.09 0.06 0.04 0.04 0.04 0.03 0.04 0.03 0.03 0.03 0.03 0.02 0.03 0.02 0.03 0.03 0.02 0.01 0.01 0.01 0.03 0.04 0.05 0.05 0.05
0.03 0.05 0.05 0.07 0.10 0.08 0.07 0.08 0.08 0.05 0.06 0.09 0.11 0.10 0.09 0.08 0.06 0.06 0.09 0.10 0.07 0.05 0.05 0.04 0.05 0.05 0.04 0.02 0.03 0.02 0.03 0.03 0.03 0.02 0.01 0.01 0.01 0.00 0.01 0.02 0.05 0.05 0.04
0.04 0.06 0.06 0.07 0.07 0.07 0.07 0.07 0.09 0.10 0.08 0.08 0.06 0.06 0.08 0.09 0.09 0.09 0.09 0.09 0.08 0.07 0.06 0.06 0.06 0.06 0.04 0.03 0.03 0.03 0.03 0.02 0.01 0.01 0.01 0.01 0.01 0.01 0.01 0.01 0.03 0.05 0.05
0.03 0.04 0.05 0.06 0.05 0.04 0.05 0.06 0.09 0.08 0.08 0.07 0.05 0.05 0.07 0.08 0.08 0.08 0.09 0.07 0.07 0.07 0.06 0.07 0.07 0.07 0.05 0.03 0.02 0.02 0.03 0.03 0.02 0.01 0.01 0.01 0.01 0.01 0.00 0.01 0.01 0.02 0.02
0.03 0.03 0.03 0.04 0.03 0.03 0.03 0.06 0.06 0.07 0.09 0.09 0.07 0.05 0.07 0.07 0.07 0.06 0.06 0.06 0.07 0.05 0.04 0.05 0.05 0.05 0.04 0.04 0.04 0.04 0.02 0.02 0.02 0.02 0.01 0.01 0.01 0.01 0.00 0.01 0.01 0.01 0.01
0.06 0.04 0.03 0.04 0.05 0.05 0.05 0.07 0.09 0.11 0.14 0.13 0.09 0.07 0.08 0.10 0.10 0.08 0.08 0.07 0.06 0.04 0.04 0.04 0.04 0.03 0.04 0.05 0.07 0.06 0.03 0.02 0.02 0.01 0.01 0.01 0.01 0.01 0.01 0.00 0.01 0.01 0.01
0.08 0.08 0.05 0.05 0.06 0.06 0.06 0.07 0.09 0.11 0.14 0.15 0.15 0.17 0.17 0.14 0.11 0.10 0.10 0.08 0.07 0.07 0.08 0.06 0.04 0.06 0.07 0.08 0.09 0.08 0.07 0.05 0.03 0.03 0.03 0.02 0.01 0.01 0.01 0.01 0.01 0.01 0.01
0.08 0.09 0.06 0.06 0.06 0.05 0.04 0.04 0.06 0.08 0.09 0.12 0.13 0.17 0.22 0.19 0.14 0.11 0.10 0.08 0.07 0.07 0.09 0.10 0.07 0.08 0.09 0.09 0.10 0.09 0.09 0.09 0.07 0.05 0.05 0.03 0.02 0.02 0.02 0.01 0.01 0.01 0.01
0.04 0.05 0.06 0.07 0.05 0.04 0.02 0.01 0.02 0.04 0.07 0.07 0.10 0.11 0.16 0.17 0.15 0.14 0.12 0.10 0.08 0.08 0.08 0.09 0.09 0.09 0.10 0.10 0.08 0.09 0.11 0.10 0.09 0.08 0.07 0.05 0.04 0.04 0.03 0.03 0.02 0.02 0.03
0.03 0.03 0.04 0.06 0.04 0.02 0.01 0.01 0.02 0.02 0.07 0.05 0.06 0.05 0.08 0.11 0.12 0.11 0.11 0.11 0.10 0.10 0.10 0.10 0.10 0.10 0.10 0.11 0.10 0.10 0.13 0.14 0.11 0.09 0.08 0.07 0.07 0.07 0.06 0.05 0.04 0.03 0.04
0.04 0.03 0.03 0.05 0.04 0.03 0.02 0.02 0.01 0.01 0.04 0.05 0.05 0.03 0.04 0.06 0.08 0.09 0.09 0.09 0.10 0.11 0.10 0.11 0.10 0.10 0.10 0.12 0.12 0.13 0.15 0.14 0.14 0.12 0.09 0.07 0.08 0.08 0.08 0.07 0.06 0.05 0.05
0.04 0.03 0.03 0.04 0.04 0.04 0.03 0.02 0.01 0.01 0.02 0.03 0.03 0.03 0.03 0.04 0.07 0.09 0.09 0.11 0.12 0.13 0.15 0.14 0.13 0.13 0.14 0.14 0.14 0.15 0.16 0.12 0.11 0.12 0.11 0.09 0.07 0.09 0.10 0.10 0.10 0.11 0.10
0.04 0.03 0.03 0.05 0.07 0.08 0.05 0.04 0.03 0.02 0.02 0.03 0.03 0.03 0.05 0.07 0.10 0.12 0.13 0.13 0.15 0.17 0.17 0.16 0.15 0.15 0.18 0.17 0.15 0.14 0.15 0.14 0.11 0.10 0.11 0.10 0.10 0.10 0.09 0.09 0.10 0.10 0.11
0.04 0.03 0.03 0.05 0.07 0.07 0.07 0.05 0.04 0.03 0.03 0.03 0.02 0.02 0.03 0.05 0.08 0.10 0.12 0.14 0.16 0.18 0.16 0.11 0.11 0.13 0.16 0.19 0.21 0.19 0.19 0.19 0.14 0.13 0.15 0.15 0.13 0.13 0.13 0.13 0.11 0.10 0.10
0.03 0.04 0.04 0.04 0.04 0.04 0.04 0.03 0.03 0.03 0.02 0.02 0.02 0.01 0.02 0.02 0.04 0.06 0.08 0.09 0.10 0.12 0.12 0.10 0.10 0.09 0.12 0.15 0.15 0.15 0.15 0.16 0.15 0.15 0.17 0.16 0.15 0.15 0.13 0.12 0.11 0.10 0.09
0.05 0.10 0.13 0.07 0.03 0.01 0.02 0.02 0.02 0.02 0.02 0.01 0.02 0.02 0.02 0.02 0.03 0.03 0.03 0.03 0.05 0.07 0.10 0.11 0.10 0.13 0.17 0.18 0.16 0.15 0.13 0.14 0.14 0.13 0.12 0.13 0.14 0.13 0.11 0.09 0.07 0.06 0.06
0.04 0.07 0.10 0.11 0.06 0.03 0.02 0.02 0.03 0.03 0.02 0.01 0.02 0.03 0.04 0.04 0.04 0.04 0.04 0.03 0.04 0.06 0.10 0.14 0.15 0.18 0.21 0.22 0.21 0.19 0.17 0.17 0.16 0.16 0.15 0.13 0.13 0.12 0.10 0.07 0.07 0.06 0.06
0.04 0.04 0.04 0.04 0.06 0.05 0.03 0.03 0.03 0.02 0.01 0.01 0.01 0.02 0.03 0.04 0.03 0.03 0.04 0.04 0.05 0.06 0.08 0.11 0.12 0.14 0.16 0.19 0.18 0.15 0.15 0.16 0.16 0.15 0.13 0.12 0.11 0.12 0.12 0.11 0.10 0.09 0.07
0.04 0.03 0.03 0.03 0.03 0.03 0.03 0.03 0.04 0.03 0.02 0.02 0.01 0.01 0.02 0.03 0.03 0.02 0.03 0.04 0.06 0.07 0.07 0.08 0.09 0.10 0.11 0.13 0.13 0.13 0.12 0.12 0.11 0.10 0.10 0.11 0.11 0.11 0.11 0.10 0.09 0.09 0.07
0.04 0.03 0.03 0.02 0.02 0.02 0.02 0.03 0.03 0.03 0.03 0.04 0.04 0.04 0.04 0.03 0.03 0.02 0.03 0.04 0.05 0.06 0.07 0.08 0.09 0.10 0.10 0.10 0.08 0.08 0.10 0.10 0.08 0.08 0.09 0.11 0.12 0.12 0.11 0.11 0.12 0.11 0.10
0.03 0.03 0.03 0.03 0.03 0.03 0.03 0.04 0.04 0.05 0.04 0.05 0.06 0.06 0.06 0.04 0.04 0.03 0.04 0.04 0.05 0.05 0.06 0.07 0.07 0.07 0.07 0.06 0.07 0.07 0.09 0.10 0.08 0.09 0.09 0.09 0.10 0.10 0.11 0.13 0.12 0.10 0.08
0.03 0.03 0.03 0.03 0.03 0.03 0.03 0.03 0.04 0.05 0.06 0.05 0.04 0.04 0.05 0.06 0.06 0.05 0.05 0.04 0.04 0.05 0.04 0.06 0.07 0.08 0.07 0.07 0.07 0.08 0.09 0.11 0.12 0.12 0.12 0.11 0.10 0.10 0.10 0.09 0.08 0.06 0.05
0.02 0.02 0.02 0.03 0.04 0.03 0.03 0.04 0.05 0.06 0.06 0.04 0.03 0.03 0.04 0.04 0.04 0.04 0.04 0.04 0.03 0.05 0.06 0.08 0.10 0.12 0.13 0.13 0.13 0.12 0.11 0.10 0.10 0.10 0.11 0.11 0.10 0.09 0.07 0.06 0.05 0.05 0.05
0.02 0.03 0.03 0.03 0.04 0.04 0.05 0.05 0.06 0.06 0.05 0.04 0.04 0.04 0.03 0.04 0.05 0.04 0.04 0.03 0.03 0.04 0.06 0.08 0.09 0.11 0.14 0.15 0.14 0.14 0.13 0.12 0.12 0.11 0.11 0.10 0.09 0.07 0.07 0.05 0.04 0.03 0.02
MSLP
1009.85 1010.20 1010.53 1010.84 1011.12 1011.40 1011.70 1012.03 1012.41 1012.84 1013.29 1013.75 1014.18 1014.57 1014.89 1015.15 1015.36 1015.54 1015.71 1015.90 1016.13 1016.41 1016.73 1017.08 1017.44 1017.80 1018.13 1018.43 1018.71 1018.97 1019.22 1019.47 1019.71 1019.95 1020.16 1020.35 1020.48 1020.55 1020.57 1020.53 1020.47 1020.40 1020.36
1009.76 1010.18 1010.55 1010.87 1011.13 1011.36 1011.61 1011.90 1012.26 1012.71 1013.21 1013.73 1014.24 1014.68 1015.03 1015.28 1015.43 1015.53 1015.60 1015.69 1015.84 1016.06 1016.36 1016.71 1017.10 1017.49 1017.85 1018.18 1018.48 1018.74 1018.99 1019.25 1019.51 1019.78 1020.05 1020.30 1020.50 1020.63 1020.68 1020.66 1020.58 1020.47 1020.37
1009.63 1010.10 1010.53 1010.87 1011.12 1011.33 1011.53 1011.79 1012.14 1012.60 1013.14 1013.72 1014.28 1014.77 1015.15 1015.38 1015.49 1015.51 1015.50 1015.50 1015.56 1015.72 1015.98 1016.32 1016.72 1017.12 1017.51 1017.86 1018.16 1018.43 1018.69 1018.96 1019.25 1019.56 1019.89 1020.21 1020.48 1020.69 1020.80 1020.81 1020.73 1020.59 1020.43
1009.41 1009.94 1010.42 1010.80 1011.06 1011.26 1011.44 1011.67 1012.01 1012.46 1013.02 1013.63 1014.24 1014.77 1015.17 1015.41 1015.49 1015.47 1015.39 1015.32 1015.31 1015.42 1015.63 1015.96 1016.34 1016.75 1017.14 1017.50 1017.81 1018.08 1018.35 1018.63 1018.95 1019.30 1019.68 1020.06 1020.41 1020.68 1020.85 1020.90 1020.84 1020.70 1020.49
1009.12 1009.71 1010.23 1010.65 1010.94 1011.14 1011.30 1011.51 1011.82 1012.26 1012.82 1013.45 1014.08 1014.64 1015.07 1015.32 1015.41 1015.36 1015.25 1015.14 1015.09 1015.15 1015.33 1015.62 1015.99 1016.39 1016.78 1017.13 1017.44 1017.72 1017.99 1018.29 1018.62 1019.00 1019.41 1019.84 1020.23 1020.56 1020.78 1020.88 1020.85 1020.72 1020.52
1008.81 1009.42 1010.00 1010.45 1010.77 1010.98 1011.14 1011.32 1011.60 1012.01 1012.55 1013.17 1013.81 1014.39 1014.84 1015.12 1015.22 1015.19 1015.08 1014.96 1014.89 1014.92 1015.07 1015.33 1015.67 1016.04 1016.42 1016.76 1017.07 1017.35 1017.63 1017.92 1018.26 1018.64 1019.07 1019.51 1019.92 1020.28 1020.54 1020.68 1020.70 1020.62 1020.45
1008.53 1009.16 1009.77 1010.27 1010.61 1010.83 1010.98 1011.14 1011.38 1011.75 1012.25 1012.84 1013.46 1014.03 1014.50 1014.80 1014.94 1014.94 1014.85 1014.73 1014.66 1014.67 1014.79 1015.02 1015.33 1015.68 1016.04 1016.37 1016.68 1016.96 1017.23 1017.52 1017.85 1018.22 1018.63 1019.05 1019.46 1019.82 1020.10 1020.29 1020.37 1020.35 1020.26
1008.35 1009.00 1009.63 1010.16 1010.52 1010.75 1010.89 1011.02 1011.22 1011.53 1011.97 1012.51 1013.09 1013.64 1014.10 1014.42 1014.58 1014.60 1014.53 1014.43 1014.36 1014.35 1014.44 1014.64 1014.91 1015.24 1015.57 1015.90 1016.21 1016.50 1016.78 1017.07 1017.38 1017.73 1018.11 1018.50 1018.88 1019.22 1019.51 1019.73 1019.87 1019.95 1019.98
1008.32 1008.98 1009.63 1010.17 1010.55 1010.79 1010.92 1011.03 1011.18 1011.43 1011.80 1012.26 1012.78 1013.28 1013.71 1014.01 1014.17 1014.19 1014.13 1014.02 1013.93 1013.90 1013.95 1014.11 1014.34 1014.63 1014.96 1015.29 1015.62 1015.93 1016.24 1016.54 1016.87 1017.20 1017.55 1017.89 1018.23 1018.55 1018.84 1019.08 1019.30 1019.48 1019.64
1008.48 1009.13 1009.78 1010.33 1010.72 1010.96 1011.08 1011.17 1011.28 1011.47 1011.77 1012.15 1012.59 1013.01 1013.37 1013.62 1013.73 1013.73 1013.63 1013.49 1013.35 1013.27 1013.27 1013.37 1013.56 1013.83 1014.15 1014.51 1014.87 1015.24 1015.60 1015.96 1016.31 1016.66 1016.99 1017.32 1017.62 1017.92 1018.20 1018.48 1018.76 1019.05 1019.35
1008.81 1009.45 1010.09 1010.62 1011.01 1011.24 1011.37 1011.44 1011.53 1011.68 1011.91 1012.21 1012.55 1012.87 1013.13 1013.29 1013.32 1013.23 1013.05 1012.83 1012.62 1012.45 1012.38 1012.42 1012.57 1012.82 1013.16 1013.55 1013.99 1014.45 1014.91 1015.36 1015.78 1016.18 1016.54 1016.87 1017.16 1017.45 1017.73 1018.04 1018.38 1018.77 1019.20
1009.25 1009.87 1010.47 1010.98 1011.35 1011.58 1011.72 1011.80 1011.89 1012.02 1012.20 1012.44 1012.68 1012.89 1013.03 1013.06 1012.96 1012.74 1012.45 1012.11 1011.79 1011.52 1011.36 1011.33 1011.44 1011.68 1012.04 1012.51 1013.04 1013.62 1014.22 1014.80 1015.34 1015.83 1016.26 1016.62 1016.95 1017.24 1017.54 1017.87 1018.26 1018.72 1019.26
1009.74 1010.31 1010.86 1011.32 1011.67 1011.91 1012.07 1012.19 1012.30 1012.44 1012.61 1012.80 1012.96 1013.06 1013.07 1012.95 1012.70 1012.34 1011.89 1011.42 1010.97 1010.59 1010.33 1010.23 1010.30 1010.54 1010.95 1011.49 1012.14 1012.86 1013.61 1014.35 1015.05 1015.67 1016.20 1016.64 1017.02 1017.34 1017.67 1018.02 1018.44 1018.95 1019.55
1010.17 1010.68 1011.16 1011.58 1011.90 1012.16 1012.36 1012.53 1012.71 1012.89 1013.08 1013.24 1013.35 1013.36 1013.24 1012.99 1012.58 1012.07 1011.48 1010.86 1010.28 1009.80 1009.45 1009.29 1009.34 1009.58 1010.03 1010.66 1011.42 1012.28 1013.20 1014.10 1014.96 1015.73 1016.39 1016.93 1017.38 1017.76 1018.11 1018.48 1018.92 1019.44 1020.05
1010.48 1010.92 1011.32 1011.68 1011.99 1012.27 1012.53 1012.79 1013.06 1013.32 1013.56 1013.74 1013.82 1013.76 1013.55 1013.18 1012.65 1012.00 1011.29 1010.56 1009.88 1009.31 1008.90 1008.69 1008.72 1008.98 1009.46 1010.16 1011.02 1012.00 1013.05 1014.10 1015.11 1016.02 1016.80 1017.45 1017.98 1018.42 1018.80 1019.19 1019.62 1020.12 1020.71
1010.60 1010.97 1011.31 1011.62 1011.93 1012.25 1012.59 1012.95 1013.32 1013.69 1014.00 1014.22 1014.31 1014.23 1013.97 1013.52 1012.91 1012.18 1011.39 1010.59 1009.86 1009.24 1008.80 1008.58 1008.60 1008.86 1009.37 1010.11 1011.03 1012.09 1013.23 1014.38 1015.50 1016.51 1017.40 1018.15 1018.75 1019.23 1019.65 1020.04 1020.45 1020.91 1021.45
1010.54 1010.85 1011.13 1011.43 1011.75 1012.12 1012.54 1013.02 1013.51 1013.99 1014.39 1014.68 1014.81 1014.74 1014.47 1014.00 1013.36 1012.61 1011.80 1011.00 1010.27 1009.66 1009.24 1009.02 1009.05 1009.32 1009.84 1010.57 1011.50 1012.58 1013.75 1014.94 1016.10 1017.18 1018.13 1018.93 1019.58 1020.11 1020.54 1020.93 1021.31 1021.73 1022.20
1010.33 1010.60 1010.86 1011.15 1011.50 1011.93 1012.45 1013.03 1013.64 1014.22 1014.72 1015.08 1015.27 1015.24 1015.00 1014.57 1013.97 1013.27 1012.52 1011.78 1011.12 1010.58 1010.21 1010.04 1010.08 1010.35 1010.85 1011.55 1012.43 1013.46 1014.58 1015.74 1016.89 1017.96 1018.92 1019.74 1020.42 1020.97 1021.41 1021.79 1022.15 1022.51 1022.91
1010.04 1010.30 1010.56 1010.88 1011.27 1011.77 1012.36 1013.03 1013.73 1014.40 1014.98 1015.41 1015.66 1015.70 1015.54 1015.18 1014.68 1014.09 1013.47 1012.86 1012.32 1011.90 1011.62 1011.51 1011.59 1011.86 1012.31 1012.95 1013.74 1014.66 1015.68 1016.74 1017.80 1018.81 1019.73 1020.53 1021.20 1021.76 1022.20 1022.58 1022.91 1023.24 1023.58
1009.76 1010.04 1010.33 1010.68 1011.13 1011.68 1012.33 1013.06 1013.82 1014.54 1015.18 1015.67 1015.98 1016.10 1016.02 1015.79 1015.43 1015.00 1014.55 1014.12 1013.75 1013.48 1013.33 1013.31 1013.42 1013.68 1014.09 1014.63 1015.30 1016.08 1016.94 1017.86 1018.79 1019.70 1020.54 1021.29 1021.94 1022.48 1022.92 1023.29 1023.62 1023.92 1024.22
1009.58 1009.89 1010.23 1010.62 1011.11 1011.70 1012.38 1013.14 1013.91 1014.66 1015.31 1015.84 1016.20 1016.40 1016.44 1016.34 1016.15 1015.91 1015.66 1015.44 1015.27 1015.18 1015.16 1015.23 1015.39 1015.65 1015.99 1016.44 1016.97 1017.59 1018.29 1019.05 1019.82 1020.60 1021.34 1022.02 1022.63 1023.15 1023.59 1023.96 1024.29 1024.58 1024.86
1009.54 1009.91 1010.29 1010.72 1011.23 1011.83 1012.52 1013.26 1014.02 1014.75 1015.40 1015.94 1016.35 1016.62 1016.77 1016.82 1016.81 1016.77 1016.74 1016.73 1016.76 1016.83 1016.95 1017.12 1017.33 1017.58 1017.87 1018.22 1018.63 1019.10 1019.64 1020.23 1020.86 1021.50 1022.14 1022.75 1023.31 1023.81 1024.24 1024.62 1024.95 1025.24 1025.51
1009.69 1010.09 1010.50 1010.95 1011.47 1012.06 1012.71 1013.42 1014.13 1014.82 1015.45 1015.99 1016.43 1016.77 1017.03 1017.23 1017.39 1017.54 1017.71 1017.90 1018.11 1018.34 1018.59 1018.84 1019.08 1019.33 1019.58 1019.85 1020.15 1020.50 1020.90 1021.36 1021.86 1022.39 1022.93 1023.47 1023.99 1024.46 1024.89 1025.27 1025.61 1025.91 1026.18
1010.01 1010.43 1010.84 1011.29 1011.79 1012.35 1012.96 1013.60 1014.25 1014.89 1015.48 1016.02 1016.49 1016.89 1017.25 1017.58 1017.89 1018.22 1018.56 1018.91 1019.28 1019.64 1019.98 1020.29 1020.57 1020.81 1021.03 1021.25 1021.48 1021.73 1022.03 1022.39 1022.79 1023.24 1023.71 1024.19 1024.67 1025.12 1025.54 1025.92 1026.26 1026.57 1026.84
1010.46 1010.87 1011.28 1011.70 1012.17 1012.67 1013.22 1013.80 1014.39 1014.97 1015.53 1016.06 1016.56 1017.02 1017.47 1017.91 1018.35 1018.81 1019.29 1019.77 1020.24 1020.69 1021.09 1021.45 1021.74 1021.98 1022.19 1022.36 1022.54 1022.75 1022.99 1023.28 1023.63 1024.02 1024.44 1024.89 1025.33 1025.76 1026.17 1026.54 1026.88 1027.19 1027.46
1011.00 1011.38 1011.76 1012.15 1012.56 1013.02 1013.50 1014.02 1014.55 1015.09 1015.63 1016.16 1016.68 1017.20 1017.72 1018.25 1018.79 1019.35 1019.92 1020.48 1021.01 1021.50 1021.94 1022.31 1022.60 1022.84 1023.03 1023.19 1023.35 1023.53 1023.75 1024.02 1024.34 1024.70 1025.10 1025.52 1025.94 1026.35 1026.74 1027.10 1027.42 1027.72 1027.98
Thickness
5809 5807 5803 5798 5792 5787 5782 5777 5772 5768 5764 5759 5753 5748 5745 5745 5744 5743 5743 5742 5742 5742 5741 5741 5741 5740 5738 5736 5736 5734 5732 5730 5730 5726 5723 5725 5728 5729 5729 5729 5727 5726 5725
5805 5803 5800 5796 5790 5785 5781 5776 5772 5769 5765 5761 5756 5752 5747 5744 5744 5743 5741 5741 5741 5741 5741 5741 5740 5739 5737 5736 5735 5734 5730 5729 5729 5724 5718 5715 5718 5724 5729 5728 5727 5727 5726
5805 5801 5796 5792 5788 5783 5780 5777 5772 5769 5766 5761 5755 5750 5745 5742 5739 5739 5739 5740 5740 5740 5740 5740 5739 5738 5737 5735 5734 5733 5730 5726 5727 5727 5721 5712 5709 5716 5723 5727 5728 5727 5726
5806 5800 5795 5789 5786 5783 5781 5776 5771 5768 5765 5761 5755 5749 5743 5739 5739 5740 5740 5740 5740 5740 5739 5739 5738 5737 5736 5735 5735 5734 5732 5728 5724 5725 5726 5724 5721 5715 5713 5720 5724 5726 5725
5804 5799 5796 5791 5787 5784 5780 5775 5770 5766 5763 5760 5756 5750 5745 5743 5741 5740 5739 5738 5738 5738 5738 5738 5737 5736 5735 5735 5735 5733 5732 5730 5726 5724 5723 5722 5722 5720 5714 5711 5717 5721 5724
5802 5797 5794 5789 5785 5783 5778 5774 5769 5765 5762 5759 5755 5751 5746 5743 5740 5738 5736 5736 5736 5736 5737 5737 5736 5736 5735 5735 5734 5733 5731 5729 5728 5726 5724 5722 5719 5717 5715 5711 5712 5714 5719
5797 5793 5788 5785 5782 5780 5776 5772 5767 5763 5761 5758 5754 5752 5748 5745 5742 5739 5737 5735 5734 5734 5735 5736 5736 5735 5735 5734 5733 5732 5730 5728 5726 5725 5723 5723 5722 5721 5718 5714 5711 5711 5713
5792 5791 5788 5784 5781 5778 5774 5770 5766 5762 5760 5757 5754 5752 5749 5746 5743 5741 5739 5737 5736 5736 5736 5736 5735 5734 5734 5733 5732 5730 5728 5727 5725 5724 5723 5721 5721 5721 5720 5716 5711 5706 5706
5789 5787 5785 5782 5779 5775 5772 5769 5765 5761 5758 5756 5754 5750 5748 5746 5744 5742 5740 5738 5737 5737 5736 5735 5734 5733 5732 5731 5729 5727 5726 5724 5723 5722 5720 5719 5719 5720 5719 5718 5715 5707 5699
5785 5783 5780 5778 5776 5774 5771 5768 5764 5761 5758 5755 5753 5750 5748 5746 5744 5741 5738 5737 5736 5736 5735 5733 5732 5731 5730 5728 5726 5724 5723 5721 5720 5719 5717 5716 5715 5715 5715 5715 5713 5711 5704
5782 5780 5777 5776 5774 5771 5769 5765 5762 5759 5756 5753 5751 5749 5746 5745 5742 5739 5738 5736 5735 5734 5733 5732 5730 5728 5727 5726 5723 5721 5719 5717 5716 5715 5713 5711 5711 5710 5710 5709 5708 5706 5703
5779 5777 5775 5773 5770 5768 5765 5763 5760 5757 5754 5752 5750 5747 5745 5743 5741 5738 5736 5735 5733 5731 5730 5729 5727 5726 5725 5723 5720 5717 5716 5714 5712 5711 5709 5707 5707 5705 5705 5703 5702 5700 5698
5774 5773 5771 5769 5766 5763 5762 5759 5757 5755 5753 5750 5747 5744 5742 5740 5738 5736 5735 5732 5730 5728 5727 5726 5724 5723 5722 5720 5718 5715 5712 5710 5708 5707 5705 5703 5702 5699 5698 5697 5695 5694 5693
5771 5768 5765 5763 5762 5760 5758 5756 5754 5753 5750 5747 5744 5741 5739 5738 5736 5734 5732 5730 5728 5725 5724 5723 5721 5720 5718 5716 5714 5711 5708 5705 5704 5703 5701 5699 5697 5695 5693 5691 5689 5686 5683
5766 5763 5760 5758 5757 5756 5755 5755 5752 5751 5748 5745 5741 5739 5738 5736 5733 5730 5728 5726 5724 5723 5721 5719 5717 5716 5714 5712 5709 5706 5703 5700 5698 5696 5694 5693 5692 5690 5687 5685 5681 5679 5674
5765 5762 5758 5756 5754 5754 5753 5752 5749 5747 5745 5741 5738 5737 5735 5732 5729 5726 5724 5721 5719 5717 5716 5714 5712 5710 5709 5707 5704 5701 5697 5694 5691 5688 5685 5684 5682 5680 5678 5676 5674 5671 5667
5764 5760 5756 5753 5752 5751 5751 5748 5745 5743 5740 5738 5735 5733 5731 5728 5725 5723 5720 5717 5714 5712 5710 5708 5706 5704 5702 5701 5698 5696 5692 5687 5683 5680 5678 5676 5672 5670 5667 5664 5661 5658 5656
5763 5757 5753 5750 5749 5749 5747 5744 5741 5738 5735 5732 5730 5728 5726 5723 5720 5717 5715 5712 5710 5707 5705 5702 5700 5697 5694 5693 5690 5687 5683 5678 5674 5671 5669 5666 5661 5659 5656 5652 5647 5643 5640
5761 5756 5752 5749 5746 5744 5742 5739 5734 5732 5729 5726 5724 5722 5720 5717 5714 5711 5709 5706 5704 5701 5697 5694 5691 5688 5685 5683 5681 5678 5673 5668 5663 5660 5658 5655 5652 5648 5646 5642 5635 5630 5625
5755 5751 5748 5745 5741 5739 5737 5732 5728 5725 5722 5720 5718 5716 5714 5711 5707 5704 5702 5699 5696 5692 5689 5685 5682 5679 5676 5674 5672 5669 5665 5658 5653 5648 5646 5644 5641 5637 5634 5630 5624 5618 5612
5748 5746 5742 5737 5734 5733 5730 5725 5721 5718 5716 5714 5711 5708 5706 5703 5700 5697 5694 5691 5688 5683 5679 5675 5670 5668 5666 5663 5661 5659 5655 5650 5644 5638 5633 5630 5628 5625 5621 5617 5612 5606 5601
5739 5737 5733 5728 5726 5725 5722 5717 5713 5711 5709 5706 5702 5699 5696 5694 5691 5688 5684 5681 5678 5673 5668 5664 5659 5656 5654 5652 5649 5647 5644 5640 5634 5627 5621 5617 5615 5611 5608 5603 5598 5593 5589
5730 5727 5723 5719 5717 5715 5713 5708 5704 5703 5700 5697 5693 5689 5686 5683 5681 5678 5675 5671 5667 5664 5658 5654 5650 5645 5642 5639 5637 5635 5631 5627 5622 5616 5610 5606 5602 5598 5594 5589 5585 5580 5574
5719 5716 5713 5709 5706 5704 5703 5700 5696 5694 5691 5686 5682 5679 5676 5673 5670 5668 5665 5661 5657 5653 5649 5645 5641 5636 5632 5628 5625 5622 5618 5614 5609 5603 5597 5593 5589 5585 5580 5575 5571 5566 5561
5708 5706 5702 5699 5696 5694 5691 5689 5687 5684 5680 5676 5672 5668 5665 5661 5657 5654 5650 5648 5646 5644 5641 5637 5633 5629 5623 5618 5616 5612 5606 5602 5597 5592 5586 5580 5575 5570 5565 5561 5556 5552 5548
5696 5693 5690 5688 5685 5683 5680 5678 5677 5675 5671 5666 5661 5658 5654 5651 5647 5642 5636 5632 5632 5630 5629 5627 5623 5618 5614 5608 5604 5600 5595 5590 5586 5581 5574 5568 5563 5558 5553 5548 5543 5538 5534